Simultaneous Nadir Overpasses (SNOs) Predictions

Prediction of SNOs between METOP-B and NOAA-19 Satellite Orbit:

Table of predicted SNOs for the next 14.0 days since TLE Epoch: 6/29/2018
Index Date (METOP-B) Time (METOP-B) Lat,Lon (METOP-B) SZA (METOP-B ) Date (NOAA-19) Time (NOAA-19) Lat,Lon (NOAA-19) SZA (NOAA-19 ) Distance(km) Time Diff (sec)
1 07/09/2018 07:07:09 -78.47, -96.62 123.80 07/09/2018 07:06:05 -78.46, -96.60 123.81 0.42 64
2 07/09/2018 07:57:50 78.44, 70.57 56.18 07/09/2018 07:57:06 78.47, 70.57 56.21 3.71 44
3 07/09/2018 08:48:31 -78.45,-122.07 123.81 07/09/2018 08:48:06 -78.46,-122.08 123.80 1.41 25
4 07/09/2018 09:39:11 78.46, 45.35 56.21 07/09/2018 09:39:06 78.43, 45.34 56.19 3.11 5
5 07/09/2018 10:29:53 -78.43,-147.51 123.82 07/09/2018 10:30:07 -78.46,-147.55 123.80 3.09 14
6 07/09/2018 11:20:33 78.44, 19.90 56.20 07/09/2018 11:21:07 78.43, 19.87 56.19 1.73 34
7 07/09/2018 12:11:15 -78.41,-172.96 123.84 07/09/2018 12:12:07 -78.42,-172.79 123.82 3.86 52
8 07/09/2018 13:01:55 78.42, -5.55 56.19 07/09/2018 13:03:08 78.42, -5.60 56.20 1.18 73




NCC Satellite Simultaneous Nadir Overpasses (SNOs) Prediction Service
